Weerstation Grootegast  Weerstation Grootegast


15 daagse weersverwachting Brest (FR)

  • Overzicht
  • Per uur
  • 15 dagen
  • Extra
  • Vergelijk
  • Kaarten
  • Dagkaart
  • Meer »
  • Info
  • Statistieken
  • Directe link
    Temp 6h Neerslag Wind  
 08:54     19:11    Daglengte: 10:17 Vandaag
20:00
14°
11.7 mm
10
 08:55     19:09    Daglengte: 10:14 Morgen
02:00
12°
4.2 mm
7
07:00
11°
3.8 mm
7
13:00
12°
11.9 mm
8
19:00
10°
11.6 mm
6
 08:57     19:07    Daglengte: 10:10 Maandag 26 Okt
01:00
10°
4.6 mm
6
07:00
11°
15.2 mm
7
13:00
13°
22.0 mm
8
19:00
11°
19.3 mm
6
 08:59     19:05    Daglengte: 10:06 Dinsdag 27 Okt
01:00
11°
 
4
07:00
12°
15.4 mm
7
13:00
15°
64.3 mm
8
Locatie info
Region: Bretagne
Latitude: 48.3904°N
Longitude: -4.4866°E
59 masl
Postcode: 29200
Temp/Neerslag /Baro Onweer/Dauwpunt
    Temp Baro 1h Neerslag Dauwpunt Wind UV Bewolking  
 08:54     19:11    Daglengte: 10:17 Vandaag
17:00
15°
1001.1 hPa 2.5 mm
48%
13.4°
12
Windvlaag: 10.4 m/s
91%
18:00
14°
1000.4 hPa 3.6 mm
82%
12.3°
10
Windvlaag: 9.4 m/s
91%
19:00
14°
999.6 hPa 3.0 mm
82%
12.1°
10
Windvlaag: 8.6 m/s
91%
20:00
14°
999.4 hPa 2.7 mm
82%
11.6°
10
Windvlaag: 6.6 m/s
91%
21:00
13°
999.4 hPa 2.3 mm
82%
11.7°
9
Windvlaag: 6.2 m/s
91%
22:00
13°
999.7 hPa 1.9 mm
82%
9.4°
7
Windvlaag: 5.4 m/s
57%
23:00
12°
1000.4 hPa
82%
9.0°
6
Windvlaag: 2.4 m/s
18%
 08:55     19:09    Daglengte: 10:14 Morgen
00:00
12°
1001.1 hPa
82%
8.5°
7
Windvlaag: 4.1 m/s
26%
01:00
12°
1001.2 hPa
82%
8.1°
7
Windvlaag: 4.6 m/s
19%
02:00
12°
1001.0 hPa
57%
7.6°
7
Windvlaag: 4.1 m/s
25%
02:00
12°
1000.6 hPa
80%
7.0°
7
Windvlaag: 3.7 m/s
14%
03:00
12°
1000.6 hPa
66%
7.0°
7
Windvlaag: 4.3 m/s
20%
04:00
12°
999.9 hPa
67%
7.3°
7
Windvlaag: 4.4 m/s
33%
05:00
12°
999.8 hPa
76%
7.0°
8
Windvlaag: 4.6 m/s
33%
06:00
11°
1000.0 hPa 1.9 mm
77%
7.1°
7
Windvlaag: 4.6 m/s
38%
07:00
11°
999.8 hPa 1.9 mm
77%
7.2°
7
Windvlaag: 4.6 m/s
44%
08:00
11°
999.8 hPa 3.0 mm
82%
8.4°
7
Windvlaag: 4.6 m/s
78%
09:00
11°
999.9 hPa
70%
8.7°
7
Windvlaag: 4.2 m/s
74%
10:00
11°
999.9 hPa 2.9 mm
76%
8.4°
7
Windvlaag: 4.7 m/s
53%
11:00
12°
999.6 hPa
77%
8.3°
8
Windvlaag: 5.1 m/s
61%
12:00
12°
999.4 hPa 3.0 mm
69%
8.4°
8
Windvlaag: 4.8 m/s
73%
13:00
12°
999.4 hPa 3.0 mm
74%
7.7°
8
Windvlaag: 4.5 m/s
64%
14:00
12°
998.9 hPa 3.4 mm
82%
8.2°
8
Windvlaag: 3.6 m/s
69%
15:00
12°
999.0 hPa
82%
8.1°
7
Windvlaag: 3.4 m/s
70% warningclass
16:00
11°
998.9 hPa 3.9 mm
81%
7.9°
7
Windvlaag: 3.7 m/s
52%
17:00
11°
999.2 hPa
81%
7.6°
7
Windvlaag: 2.6 m/s
63%
18:00
11°
999.7 hPa 4.4 mm
82%
6.9°
6
Windvlaag: 2.9 m/s
50%
19:00
10°
1000.3 hPa
72%
7.4°
6
Windvlaag: 1.9 m/s
22%
20:00
10°
1000.6 hPa
80%
6.8°
5
Windvlaag: 1.4 m/s
26%
21:00
10°
1001.1 hPa
77%
6.4°
5
Windvlaag: 0.9 m/s
37%
22:00
10°
1001.6 hPa
29%
5.8°
5
Windvlaag: 1.9 m/s
12%
23:00
10°
1002.0 hPa
26%
6.9°
6
Windvlaag: 2.1 m/s
16%
 08:57     19:07    Daglengte: 10:10 Maandag 26 Okt
00:00
10°
Voelt als: 7.4°
1002.0 hPa
73%
7.4°
5
Windvlaag: 2.8 m/s
33%
01:00
10°
1001.9 hPa 4.6 mm
76%
6.9°
6
Windvlaag: 3.1 m/s
27%
02:00
11°
1002.0 hPa 4.9 mm
76%
7.3°
6
Windvlaag: 2.1 m/s
33%
03:00
11°
1002.0 hPa
76%
7.4°
6
Windvlaag: 1 m/s
29%
04:00
11°
1002.1 hPa
78%
7.4°
6
Windvlaag: 1.2 m/s
30%
05:00
11°
1002.4 hPa 5.1 mm
78%
8.4°
6
Windvlaag: 0.9 m/s
64%
06:00
11°
1002.6 hPa
78%
7.6°
7
Windvlaag: 1 m/s
38%
07:00
11°
1002.9 hPa 5.2 mm
78%
7.5°
7
Windvlaag: 1 m/s
69%
08:00
11°
1003.2 hPa 5.3 mm
78%
7.6°
7
Windvlaag: 1.2 m/s
27%
09:00
11°
1003.9 hPa 5.4 mm
76%
8.2°
7
Windvlaag: 0.9 m/s
64%
10:00
11°
1004.3 hPa 5.6 mm
100%
8.1°
8
Windvlaag: 0.5 m/s
41%
11:00
12°
1004.7 hPa 5.7 mm
100%
8.7°
7
Windvlaag: 0.6 m/s
26%
12:00
13°
1005.2 hPa
100%
8.8°
8
Windvlaag: -1 m/s
25%
13:00
13°
1005.5 hPa
100%
8.5°
8
Windvlaag: -0.6 m/s
39%
14:00
13°
1005.7 hPa 4.5 mm
100%
8.8°
8
Windvlaag: -0.7 m/s
50%
15:00
12°
1005.9 hPa 4.4 mm
100%
8.5°
8
Windvlaag: -0.7 m/s
35%
16:00
12°
1006.3 hPa 4.5 mm
100%
7.8°
8
Windvlaag: -0.7 m/s
40%
17:00
12°
1006.7 hPa 6.0 mm
100%
8.1°
7
Windvlaag: -1 m/s
30%
18:00
11°
1007.1 hPa
56%
8.2°
6
Windvlaag: -0.9 m/s
41%
19:00
11°
1007.6 hPa
97%
8.2°
6
Windvlaag: -0.8 m/s
35%
20:00
11°
1008.0 hPa
97%
8.7°
6
Windvlaag: -0.4 m/s
38%
21:00
11°
1008.4 hPa
86%
8.8°
5
Windvlaag: -0.4 m/s
49%
22:00
11°
1008.6 hPa
34%
8.4°
5
Windvlaag: -0.1 m/s
53%
23:00
11°
1008.7 hPa
30%
8.4°
5
Windvlaag: 0.4 m/s
57%
 08:59     19:05    Daglengte: 10:06 Dinsdag 27 Okt
00:00
11°
1008.5 hPa
31%
8.2°
5
Windvlaag: 0.6 m/s
85%
01:00
11°
1008.2 hPa
41%
8.1°
4
Windvlaag: 1.4 m/s
81%
02:00
11°
1007.8 hPa
39%
8.0°
4
Windvlaag: 1.4 m/s
94%
03:00
11°
1007.4 hPa
25%
8.2°
5
Windvlaag: 2.4 m/s
100%
04:00
12°
1006.6 hPa
99%
8.4°
5
Windvlaag: 2.9 m/s
100%
05:00
12°
1005.9 hPa 4.8 mm
100%
8.7°
6
Windvlaag: 3.9 m/s
100%
06:00
12°
1005.3 hPa 5.2 mm
100%
9.6°
6
Windvlaag: 5.3 m/s
100%
07:00
12°
1004.4 hPa 5.4 mm
100%
10.6°
7
Windvlaag: 5.3 m/s
98%
08:00
12°
1003.0 hPa 12.9 mm
100%
11.1°
7
Windvlaag: 15.7 m/s
100%
09:00
13°
1002.2 hPa 12.8 mm
100%
11.7°
7
Windvlaag: 16.5 m/s
100%
10:00
14°
1001.7 hPa 13.0 mm
100%
12.3°
7
Windvlaag: 15.8 m/s
99%
11:00
14°
1001.3 hPa 12.9 mm
100%
13.1°
7
Windvlaag: 15 m/s
85%
12:00
15°
1001.0 hPa
100%
13.4°
7
Windvlaag: 15.3 m/s
82%
13:00
15°
1000.6 hPa 12.8 mm
100%
13.4°
8
Windvlaag: 2.4 m/s
92%
14:00
14°
1000.9 hPa 38.1 mm
100%
12.3°
8
Windvlaag: 15.3 m/s
79%
15:00
14°
1001.7 hPa 38.1 mm
100%
11.3°
7
Windvlaag: 14.5 m/s
70%
Temp/Neerslag /Baro Onweer/Dauwpunt
    Temp Baro Neerslag Dauwpunt Wind Bewolking  
 08:54     19:11    Daglengte: 10:17 Vandaag
17:00
15°
1001.1 hPa 2.5 mm 13.4°
12
91%
20:00
14°
999.4 hPa 9.3 mm 11.6°
10
91%
23:00
12°
1000.4 hPa 4.2 mm 9.0°
6
18%
 08:55     19:09    Daglengte: 10:14 Morgen
02:00
12°
1001.0 hPa   7.6°
7
25%
04:00
12°
999.9 hPa   7.3°
7
33%
07:00
11°
999.8 hPa 3.8 mm 7.2°
7
44%
10:00
11°
999.9 hPa 5.9 mm 8.4°
7
53%
13:00
12°
999.4 hPa 6.0 mm 7.7°
8
64%
16:00
11°
998.9 hPa 7.2 mm 7.9°
7
52%
19:00
10°
1000.3 hPa 4.4 mm 7.4°
6
22%
22:00
10°
1001.6 hPa   5.8°
5
12%
 08:57     19:07    Daglengte: 10:10 Maandag 26 Okt
01:00
10°
1001.9 hPa 4.6 mm 6.9°
6
27%
04:00
11°
1002.1 hPa 4.9 mm 7.4°
6
30%
07:00
11°
1002.9 hPa 10.3 mm 7.5°
7
69%
10:00
11°
1004.3 hPa 16.3 mm 8.1°
8
41%
13:00
13°
1005.5 hPa 5.7 mm 8.5°
8
39%
16:00
12°
1006.3 hPa 13.3 mm 7.8°
8
40%
19:00
11°
1007.6 hPa 6.0 mm 8.2°
6
35%
22:00
11°
1008.6 hPa   8.4°
5
53%
 08:59     19:05    Daglengte: 10:06 Dinsdag 27 Okt
01:00
11°
1008.2 hPa   8.1°
4
81%
04:00
12°
1006.6 hPa   8.4°
5
100%
07:00
12°
1004.4 hPa 15.4 mm 10.6°
7
98%
10:00
14°
1001.7 hPa 38.7 mm 12.3°
7
99%
13:00
15°
1000.6 hPa 25.7 mm 13.4°
8
92%
16:00
13°
1002.6 hPa 114.6 mm 10.2°
7
66%
19:00
11°
1004.9 hPa 115.4 mm 6.9°
7
31%
22:00
12°
1007.8 hPa 30.5 mm 6.1°
7
26%
 09:00     19:04    Daglengte: 10:04 Woensdag 28 Okt
01:00
12°
1009.1 hPa 31.7 mm 5.7°
7
24%
04:00
12°
1010.0 hPa 33.0 mm 7.1°
7
45%
07:00
12°
1011.0 hPa 34.8 mm 8.4°
7
65%
10:00
12°
1012.1 hPa 35.8 mm 9.4°
8
78%
13:00
12°
1013.2 hPa 36.8 mm 10.3°
8
92%
16:00
12°
1014.2 hPa 37.5 mm 9.9°
8
91%
19:00
12°
1015.3 hPa 37.9 mm 9.5°
8
91%
22:00
12°
1017.1 hPa 38.2 mm 9.9°
7
90%
 09:02     19:02    Daglengte: 10:00 Donderdag 29 Okt
01:00
12°
1018.8 hPa 38.3 mm 10.4°
5
89%
04:00
12°
1019.1 hPa 38.5 mm 10.8°
6
62%
07:00
13°
1019.4 hPa 38.6 mm 11.1°
6
36%
10:00
14°
1020.3 hPa 39.1 mm 11.9°
8
59%
13:00
15°
1021.2 hPa 39.4 mm 12.7°
9
82%
16:00
14°
1021.3 hPa 39.6 mm 12.6°
8
84%
19:00
14°
1021.4 hPa 39.6 mm 12.5°
8
85%
22:00
14°
1021.8 hPa 39.6 mm 12.6°
8
87%
 09:03     19:00    Daglengte: 9:57 Vrijdag 30 Okt
01:00
14°
1022.0 hPa 39.7 mm 12.8°
7
90%
04:00
14°
1021.7 hPa 39.8 mm 13.2°
8
91%
07:00
14°
1021.4 hPa 40.0 mm 13.7°
8
92%
10:00
15°
1022.2 hPa 40.2 mm 13.3°
7
76%
13:00
15°
1023.0 hPa 40.5 mm 12.9°
6
59%
16:00
15°
1022.8 hPa 40.8 mm 12.9°
6
68%
19:00
14°
1022.5 hPa 41.6 mm 13.0°
7
77%
22:00
14°
1022.5 hPa 43.8 mm 13.4°
7
84%
 09:05     18:59    Daglengte: 9:54 Zaterdag 31 Okt
01:00
14°
1022.6 hPa 47.1 mm 13.7°
6
92%
04:00
14°
1022.2 hPa 48.4 mm 13.2°
7
92%
07:00
13°
1021.9 hPa 48.7 mm 12.8°
7
92%
10:00
14°
1021.8 hPa 49.2 mm 13.0°
7
92%
13:00
15°
1021.7 hPa 99.3 mm 13.2°
7
92%
19:00
14°
1020.9 hPa 100.2 mm 13.2°
6
92%
 09:06     18:57    Daglengte: 9:51 Zondag 01 Nov
01:00
13°
1019.8 hPa 100.2 mm 13.0°
6
92%
07:00
13°
1017.0 hPa 100.2 mm 12.4°
7
19%
13:00
16°
1015.3 hPa 109.8 mm 12.5°
8
76%
19:00
15°
1012.8 hPa 122.7 mm 12.5°
8
90%
 09:08     18:56    Daglengte: 9:48 Maandag 02 Nov
01:00
15°
1013.3 hPa 174.4 mm 13.5°
7
92%
07:00
13°
1014.5 hPa 177.1 mm 12.4°
3
92%
13:00
13°
1016.4 hPa 178.5 mm 11.8°
2
92%
19:00
14°
1016.0 hPa 180.0 mm 13.1°
5
92%
 09:10     18:54    Daglengte: 9:44 Dinsdag 03 Nov
01:00
12°
1020.3 hPa 0.5 mm 9.5°
4
56%
07:00
11°
1021.5 hPa 0.4 mm 8.5°
3
46%
13:00
13°
1023.9 hPa 0.4 mm 8.9°
4
41%
19:00
11°
1025.2 hPa 0.3 mm 7.7°
3
49%
 09:11     18:53    Daglengte: 9:42 Woensdag 04 Nov
01:00
10°
1026.3 hPa 0.4 mm 7.5°
2
51%
07:00
10°
Voelt als: 8.7°
1026.2 hPa 0.6 mm 7.0°
2
63%
13:00
12°
1026.8 hPa 0.5 mm 7.5°
3
60%
19:00
10°
Voelt als: 9.0°
1026.7 hPa 0.5 mm 7.4°
2
55%
 09:13     18:51    Daglengte: 9:38 Donderdag 05 Nov
01:00
Voelt als: 9.0°
1027.6 hPa 0.3 mm 6.6°
1
48%
07:00
1026.9 hPa 0.3 mm 6.4°
1
47%
13:00
12°
1026.5 hPa 0.2 mm 7.4°
2
63%
19:00
10°
1024.7 hPa 0.4 mm 7.6°
2
72%
 09:14     18:50    Daglengte: 9:36 Vrijdag 06 Nov
01:00
10°
Voelt als: 8.9°
1023.9 hPa 0.5 mm 7.1°
2
59%
07:00
Voelt als: 8.9°
1022.7 hPa 0.6 mm 7.0°
1
62%
13:00
12°
1022.9 hPa 0.3 mm 7.6°
2
66%
19:00
10°
1022.5 hPa 0.3 mm 7.8°
2
64%
 09:16     18:48    Daglengte: 9:32 Zaterdag 07 Nov
01:00
10°
Voelt als: 9.0°
1022.7 hPa 0.2 mm 7.9°
2
60%
07:00
10°
Voelt als: 8.9°
1022.1 hPa 0.5 mm 8.0°
2
66%
13:00
13°
1022.5 hPa 0.2 mm 8.8°
3
73%
19:00
11°
1022.5 hPa 0.2 mm 8.5°
2
68%
 09:17     18:47    Daglengte: 9:30 Zondag 08 Nov
01:00
10°
1022.8 hPa 0.9 mm 8.0°
2
70%
07:00
10°
1022.2 hPa 0.9 mm 7.8°
2
77%
13:00
12°
1022.8 hPa 0.7 mm 7.8°
1
67%
  CAPE Lifted Index Hail Supercell Tornado SRH 3km CL BTM PRES CL TOP PRES Swiss DWD icon SMHI TS
 08:54     19:11    Daglengte: 10:17 Vandaag
17:00 163 J/kg 0.3 K 0 % 0 % 0 % 0 m²/s² 0 0 0.51 80
18:00 0 J/kg 5.0 K 0 % 0 % 0 % 0 m²/s² 0 0 5.12 61
19:00 15 J/kg 4.1 K 0 % 0 % 0 % 0 m²/s² 0 0 4.28 61
20:00 47 J/kg 3.5 K 0 % 0 % 0 % 0 m²/s² 0 0 3.83 61
21:00 224 J/kg 2.8 K 0 % 0 % 0 % 0 m²/s² 0 0 5.02 61
22:00 165 J/kg 3.6 K 0 % 0 % 0 % 0 m²/s² 0 0 5.25 80
23:00 258 J/kg 2.2 K 0 % 0 % 0 % 0 m²/s² 0 0 3.67 2
 08:55     19:09    Daglengte: 10:14 Morgen
00:00 273 J/kg 1.8 K 0 % 0 % 0 % 0 m²/s² 0 0 6.9 2
01:00 264 J/kg 1.7 K 0 % 0 % 0 % 0 m²/s² 0 0 7.07 2
02:00 276 J/kg 1.4 K 0 % 0 % 0 % 0 m²/s² 0 0 4.91 2
02:00 261 J/kg 1.1 K 0 % 0 % 0 % 0 m²/s² 0 0 3.95 80
03:00 328 J/kg 0.1 K 0 % 0 % 0 % 0 m²/s² 0 0 2.44 2
04:00 491 J/kg -1.8 K 0 % 0 % 0 % 0 m²/s² 0 0 0.27 3
05:00 426 J/kg -2.0 K 0 % 0 % 0 % 0 m²/s² 0 0 0.4 2
06:00 592 J/kg -2.9 K 0 % 0 % 0 % 0 m²/s² 0 0 -0.77 80
07:00 314 J/kg -1.5 K 0 % 0 % 0 % 0 m²/s² 0 0 0.51 80
08:00 458 J/kg -2.7 K 0 % 0 % 0 % 0 m²/s² 0 0 -0.99 80
09:00 669 J/kg -3.5 K 0 % 0 % 0 % 0 m²/s² 0 0 -1.61 3
10:00 649 J/kg -3.3 K 0 % 0 % 0 % 0 m²/s² 0 0 -1.17 2
11:00 732 J/kg -3.6 K 0 % 0 % 0 % 0 m²/s² 0 0 -1.2 3
12:00 589 J/kg -2.7 K 0 % 0 % 0 % 0 m²/s² 0 0 -1.74 3
13:00 196 J/kg -0.5 K 0 % 0 % 0 % 0 m²/s² 0 0 0.37 3
14:00 351 J/kg -1.2 K 0 % 0 % 0 % 0 m²/s² 0 0 -0.51 80
15:00 31 J/kg -0.4 K 0 % 0 % 0 % 0 m²/s² 0 0 0.65 95
16:00 352 J/kg -1.5 K 0 % 0 % 0 % 0 m²/s² 0 0 0.27 80
17:00 0 J/kg 1.7 K 0 % 0 % 0 % 0 m²/s² 0 0 2.75 80
18:00 189 J/kg -0.5 K 0 % 0 % 0 % 0 m²/s² 0 0 1.03 80
19:00 381 J/kg -2.1 K 0 % 0 % 0 % 0 m²/s² 0 0 1.2 2
20:00 439 J/kg -2.0 K 0 % 0 % 0 % 0 m²/s² 0 0 0.19 80
21:00 37 J/kg 0.4 K 0 % 0 % 0 % 0 m²/s² 0 0 2.26 3
22:00 42 J/kg 0.3 K 0 % 0 % 0 % 0 m²/s² 0 0 1.08 1
23:00 19 J/kg 1.4 K 0 % 0 % 0 % 0 m²/s² 0 0 1.79 1
 08:57     19:07    Daglengte: 10:10 Maandag 26 Okt
00:00 88 J/kg 0.4 K 0 % 0 % 0 % 0 m²/s² 0 0 1.84 3
01:00 67 J/kg 0.7 K 0 % 0 % 0 % 0 m²/s² 0 0 1.21 80
02:00 50 J/kg 0.8 K 0 % 0 % 0 % 0 m²/s² 0 0 1.16 80
03:00 387 J/kg -1.3 K 0 % 0 % 0 % 0 m²/s² 0 0 1.55 80
04:00 332 J/kg -1.4 K 0 % 0 % 0 % 0 m²/s² 0 0 0.73 80
05:00 455 J/kg -1.8 K 0 % 0 % 0 % 0 m²/s² 0 0 0.09 80
06:00 195 J/kg -0.6 K 0 % 0 % 0 % 0 m²/s² 0 0 1.41 3
07:00 59 J/kg 0.4 K 0 % 0 % 0 % 0 m²/s² 0 0 1.18 80
08:00 431 J/kg -2.0 K 0 % 0 % 0 % 0 m²/s² 0 0 -1.04 80
09:00 403 J/kg -1.8 K 0 % 0 % 0 % 0 m²/s² 0 0 0.69 80
10:00 384 J/kg -1.7 K 0 % 0 % 0 % 0 m²/s² 0 0 -0.47 1
11:00 385 J/kg -1.7 K 0 % 0 % 0 % 0 m²/s² 0 0 0.64 1
12:00 553 J/kg -2.6 K 0 % 0 % 0 % 0 m²/s² 0 0 -1.79 1
13:00 451 J/kg -0.6 K 0 % 0 % 0 % 0 m²/s² 0 0 2.16 2
14:00 307 J/kg 0.8 K 0 % 0 % 0 % 0 m²/s² 0 0 5.36 80
15:00 194 J/kg 1.9 K 0 % 0 % 0 % 0 m²/s² 0 0 7.27 80
16:00 171 J/kg 2.7 K 0 % 0 % 0 % 0 m²/s² 0 0 8.76 80
17:00 119 J/kg 4.1 K 0 % 0 % 0 % 0 m²/s² 0 0 10.79 80
18:00 90 J/kg 5.6 K 0 % 0 % 0 % 0 m²/s² 0 0 11.51 2
19:00 16 J/kg 8.3 K 0 % 0 % 0 % 0 m²/s² 0 0 15.05 2
20:00 149 J/kg 7.3 K 0 % 0 % 0 % 0 m²/s² 0 0 14.32 80
21:00 159 J/kg 8.0 K 0 % 0 % 0 % 0 m²/s² 0 0 15.32 2
22:00 132 J/kg 8.7 K 0 % 0 % 0 % 0 m²/s² 0 0 16.65 3
23:00 124 J/kg 9.1 K 0 % 0 % 0 % 0 m²/s² 0 0 17.11 3
 08:59     19:05    Daglengte: 10:06 Dinsdag 27 Okt
00:00 49 J/kg 10.7 K 0 % 0 % 0 % 0 m²/s² 0 0 17.03 3
01:00 69 J/kg 10.5 K 0 % 0 % 0 % 0 m²/s² 0 0 16.68 3
02:00 66 J/kg 11.4 K 0 % 0 % 0 % 0 m²/s² 0 0 13.98 3
03:00 47 J/kg 11.7 K 0 % 0 % 0 % 0 m²/s² 0 0 12.81 3
04:00 103 J/kg 10.5 K 0 % 0 % 0 % 0 m²/s² 0 0 10.68 3
05:00 52 J/kg 11.0 K 0 % 0 % 0 % 0 m²/s² 0 0 11.12 61
06:00 12 J/kg 10.9 K 0 % 0 % 0 % 0 m²/s² 0 0 10.99 61
07:00 8 J/kg 9.3 K 0 % 0 % 0 % 0 m²/s² 0 0 9.42 61
08:00 0 J/kg 7.8 K 0 % 0 % 0 % 0 m²/s² 0 0 7.89 61
09:00 1 J/kg 5.4 K 0 % 0 % 0 % 0 m²/s² 0 0 5.91 80
10:00 1 J/kg 4.3 K 0 % 0 % 0 % 0 m²/s² 0 0 5.59 80
11:00 69 J/kg 4.5 K 0 % 0 % 0 % 0 m²/s² 0 0 7.68 80
12:00 101 J/kg 5.2 K 0 % 0 % 0 % 0 m²/s² 0 0 10.54 3
13:00 39 J/kg 8.1 K 0 % 0 % 0 % 0 m²/s² 0 0 18.42 3
14:00 93 J/kg 8.2 K 0 % 0 % 0 % 0 m²/s² 0 0 21.04
15:00 117 J/kg 8.2 K 0 % 0 % 0 % 0 m²/s² 0 0 21.04
Temp Baro Wind Neerslag
  EWN Forecast EWN WRFDA DWD ICON FMI HIRLAM MET Norway GFS
 08:54     19:11    Daglengte: 10:17 Vandaag
17:00 14.9° 1001.1 hPa 11.9 m/s 2.5 mm 14.9° 1000.2 hPa 12.7 m/s 3.5 mm 15.3° 1000.5 hPa 10.6 m/s 2.3 mm 16.0° 1001.3 hPa 13.8 m/s 0.0 mm 14.2° 1002.0 hPa 10.7 m/s 15.0° 1000.8 hPa 15.6 m/s
20:00 13.6° 999.4 hPa 9.7 m/s 9.3 mm 12.7° 999.1 hPa 11.6 m/s 30.3 mm 13.6° 999.5 hPa 10.8 m/s 5.1 mm 15.2° 998.3 hPa 13.1 m/s 0.0 mm 12.7° 999.9 hPa 7.3 m/s 12.6° 998.3 hPa 10.2 m/s
23:00 12.3° 1000.4 hPa 6.5 m/s 4.2 mm 12.6° 1000.4 hPa 8.2 m/s 33.8 mm 12.8° 1000.6 hPa 6.4 m/s 1.7 mm 13.0° 1000.3 hPa 5.5 m/s 0.0 mm 12.1° 1000.3 hPa 7.2 m/s 12.0° 1000.2 hPa 8.8 m/s
 08:55     19:09    Daglengte: 10:14 Morgen
02:00 12.0° 1001.0 hPa 6.9 m/s 0.0 mm 12.0° 1000.4 hPa 7.3 m/s 34.1 mm 12.3° 1001.2 hPa 7.1 m/s 0.3 mm 12.4° 1000.8 hPa 6.6 m/s 0.0 mm 11.9° 1001.1 hPa 6.9 m/s 11.6° 1000.7 hPa 8.8 m/s
04:00 11.7° 999.9 hPa 7.1 m/s 0.0 mm 11.4° 999.3 hPa 7.1 m/s 34.6 mm 12.1° 1000.6 hPa 7.3 m/s 0.3 mm 11.3° 1000.3 hPa 6.7 m/s 0.0 mm 11.9° 999.9 hPa 7.7 m/s 10.7° 1000.4 hPa 8.7 m/s
07:00 11.2° 999.8 hPa 7.3 m/s 3.8 mm 10.2° 998.8 hPa 7.4 m/s 35.9 mm 11.6° 1000.1 hPa 7.3 m/s 0.9 mm 11.0° 1000.7 hPa 7.6 m/s 0.0 mm 11.4° 999.8 hPa 7.3 m/s 10.7° 1000.2 hPa 9.0 m/s
10:00 11.4° 999.9 hPa 7.3 m/s 5.9 mm 12.3° 998.7 hPa 8.3 m/s 37.7 mm 11.8° 1000.6 hPa 7.4 m/s 0.7 mm 11.5° 1000.9 hPa 8.0 m/s 0.0 mm 11.0° 999.8 hPa 6.9 m/s 11.6° 1000.0 hPa 9.3 m/s
13:00 12.2° 999.4 hPa 8.3 m/s 6.0 mm 10.7° 999.2 hPa 9.6 m/s 41.9 mm 12.4° 1000.0 hPa 7.8 m/s 0.2 mm 12.3° 1001.1 hPa 9.1 m/s 0.0 mm 12.4° 999.2 hPa 8.2 m/s 12.4° 999.9 hPa 10.4 m/s
16:00 11.5° 998.9 hPa 7.2 m/s 7.2 mm 10.9° 997.7 hPa 6.3 m/s 51.1 mm 11.5° 999.1 hPa 6.7 m/s 1.2 mm 11.8° 1000.8 hPa 7.1 m/s 0.0 mm 11.5° 998.8 hPa 8.6 m/s 11.8° 1000.2 hPa 9.8 m/s
19:00 10.4° 1000.3 hPa 5.8 m/s 4.4 mm 9.3° 998.8 hPa 3.6 m/s 62.6 mm 10.6° 1000.7 hPa 6.0 m/s 1.0 mm 11.4° 1001.3 hPa 5.7 m/s 0.0 mm 9.9° 1000.3 hPa 6.0 m/s 10.8° 1001.7 hPa 8.1 m/s
22:00 10.2° 1001.6 hPa 5.1 m/s 0.0 mm 10.1° 1000.3 hPa 5.0 m/s 63.8 mm 10.2° 1002.0 hPa 5.1 m/s 0.3 mm 10.5° 1002.2 hPa 3.4 m/s 0.0 mm 10.3° 1001.7 hPa 5.7 m/s 10.9° 1003.0 hPa 7.6 m/s
 08:57     19:07    Daglengte: 10:10 Maandag 26 Okt
01:00 10.2° 1001.9 hPa 5.6 m/s 4.6 mm 9.8° 1001.0 hPa 9.4 m/s 65.2 mm 10.7° 1002.7 hPa 6.1 m/s 0.2 mm 10.5° 1003.0 hPa 4.6 m/s 0.0 mm 10.2° 1001.9 hPa 5.1 m/s 10.8° 1002.7 hPa 7.9 m/s
04:00 10.8° 1002.1 hPa 6.1 m/s 4.9 mm 9.7° 1000.4 hPa 5.3 m/s 69.5 mm 11.1° 1003.3 hPa 7.0 m/s 0.6 mm 11.1° 1002.8 hPa 6.4 m/s 0.0 mm 10.8° 1002.1 hPa 6.0 m/s 10.9° 1002.9 hPa 7.8 m/s
07:00 10.6° 1002.9 hPa 6.5 m/s 10.3 mm 9.4° 1001.9 hPa 6.8 m/s 75.2 mm 11.0° 1004.1 hPa 6.6 m/s 0.5 mm 11.2° 1003.9 hPa 6.3 m/s 0.0 mm 10.6° 1002.7 hPa 6.7 m/s 11.2° 1003.1 hPa 8.9 m/s
10:00 11.4° 1004.3 hPa 7.8 m/s 16.3 mm 10.7° 1002.1 hPa 8.8 m/s 78.4 mm 11.8° 1005.9 hPa 7.7 m/s 0.5 mm 11.4° 1004.3 hPa 7.8 m/s 12.1° 1003.8 hPa 8.8 m/s
13:00 12.9° 1005.5 hPa 8.1 m/s 5.7 mm 12.3° 1004.0 hPa 9.1 m/s 83.8 mm 12.4° 1006.9 hPa 8.2 m/s 0.1 mm 13.0° 1005.5 hPa 8.0 m/s 13.1° 1005.4 hPa 9.6 m/s
16:00 12.2° 1006.3 hPa 7.7 m/s 13.3 mm 12.7° 1005.4 hPa 7.7 m/s 86.8 mm 11.8° 1007.5 hPa 7.7 m/s 0.8 mm 12.3° 1006.2 hPa 7.8 m/s 12.8° 1005.4 hPa 9.2 m/s
19:00 10.9° 1007.6 hPa 5.7 m/s 6.0 mm 10.2° 1006.5 hPa 4.5 m/s 86.9 mm 11.3° 1008.5 hPa 5.9 m/s 0.2 mm 10.9° 1007.5 hPa 6.0 m/s 11.7° 1006.3 hPa 9.2 m/s
22:00 10.7° 1008.6 hPa 5.0 m/s 0.0 mm 9.9° 1007.1 hPa 4.5 m/s 86.9 mm 11.4° 1008.9 hPa 3.7 m/s 0.2 mm 10.7° 1008.6 hPa 5.7 m/s 11.7° 1006.8 hPa 8.7 m/s
 08:59     19:05    Daglengte: 10:06 Dinsdag 27 Okt
01:00 10.8° 1008.2 hPa 4.4 m/s 0.0 mm 11.0° 1006.9 hPa 5.8 m/s 87.4 mm 11.8° 1008.2 hPa 3.8 m/s 0.0 mm 10.7° 1008.1 hPa 4.3 m/s 11.3° 1006.5 hPa 7.1 m/s
04:00 11.5° 1006.6 hPa 5.2 m/s 0.0 mm 11.6° 1004.9 hPa 7.3 m/s 87.8 mm 12.6° 1006.4 hPa 4.9 m/s 0.1 mm 11.4° 1006.6 hPa 5.1 m/s 11.9° 1004.6 hPa 7.6 m/s
07:00 11.9° 1004.4 hPa 6.5 m/s 15.4 mm 11.4° 1002.5 hPa 6.6 m/s 93.4 mm 13.1° 1004.0 hPa 6.0 m/s 3.2 mm 11.8° 1004.4 hPa 6.5 m/s 11.9° 1001.9 hPa 10.3 m/s
10:00 13.5° 1001.7 hPa 7.2 m/s 38.7 mm 13.0° 998.9 hPa 10.2 m/s 107.9 mm 14.4° 1001.5 hPa 6.8 m/s 4.1 mm 13.4° 1002.3 hPa 6.9 m/s 13.5° 998.3 hPa 12.9 m/s
13:00 14.9° 1000.6 hPa 7.7 m/s 25.7 mm 14.0° 999.6 hPa 9.5 m/s 113.9 mm 15.3° 1002.6 hPa 7.7 m/s 0.6 mm 15.0° 1000.3 hPa 7.3 m/s 14.0° 998.6 hPa 9.0 m/s
16:00 13.0° 1002.6 hPa 7.0 m/s 114.6 mm 11.4° 1001.5 hPa 7.1 m/s 114.6 mm 13.3° 1002.8 hPa 6.9 m/s 12.4° 1000.9 hPa 8.6 m/s
19:00 11.5° 1004.9 hPa 6.5 m/s 115.4 mm 10.9° 1003.3 hPa 6.2 m/s 115.4 mm 11.6° 1005.2 hPa 6.6 m/s 11.5° 1002.0 hPa 8.4 m/s
22:00 11.7° 1007.8 hPa 7.0 m/s 30.5 mm 11.7° 1008.3 hPa 6.7 m/s 11.7° 1002.5 hPa 10.0 m/s 30.5 mm
 09:00     19:04    Daglengte: 10:04 Woensdag 28 Okt
01:00 11.8° 1009.1 hPa 7.4 m/s 31.7 mm 11.8° 1009.8 hPa 6.8 m/s 11.3° 1001.9 hPa 13.4 m/s 31.7 mm
04:00 11.6° 1010.0 hPa 7.2 m/s 33.0 mm 11.7° 1010.8 hPa 6.7 m/s 11.6° 1000.9 hPa 12.8 m/s 33.0 mm
07:00 11.5° 1011.0 hPa 7.1 m/s 34.8 mm 11.5° 1011.9 hPa 6.5 m/s 11.7° 1001.2 hPa 14.0 m/s 34.8 mm
10:00 11.6° 1012.1 hPa 7.7 m/s 35.8 mm 11.5° 1013.0 hPa 7.2 m/s 12.2° 1002.5 hPa 13.5 m/s 35.8 mm
13:00 11.6° 1013.2 hPa 8.4 m/s 36.8 mm 11.5° 1014.0 hPa 7.9 m/s 12.5° 1003.8 hPa 13.6 m/s 36.8 mm
16:00 11.8° 1014.2 hPa 8.0 m/s 37.5 mm 11.7° 1015.0 hPa 7.6 m/s 12.7° 1004.8 hPa 12.9 m/s 37.5 mm
19:00 11.9° 1015.3 hPa 7.7 m/s 37.9 mm 11.9° 1016.1 hPa 7.3 m/s 11.8° 1006.8 hPa 12.0 m/s 37.9 mm
22:00 12.0° 1017.1 hPa 6.5 m/s 38.2 mm 12.0° 1017.9 hPa 6.2 m/s 12.1° 1009.3 hPa 10.8 m/s 38.2 mm
 09:02     19:02    Daglengte: 10:00 Donderdag 29 Okt
01:00 12.1° 1018.8 hPa 5.3 m/s 38.3 mm 12.1° 1019.6 hPa 5.0 m/s 12.4° 1010.4 hPa 9.1 m/s 38.3 mm
04:00 12.4° 1019.1 hPa 5.8 m/s 38.5 mm 12.3° 1019.9 hPa 5.5 m/s 12.6° 1010.3 hPa 9.6 m/s 38.5 mm
07:00 12.7° 1019.4 hPa 6.3 m/s 38.6 mm 12.6° 1020.2 hPa 5.9 m/s 13.4° 1010.3 hPa 11.3 m/s 38.6 mm
10:00 13.6° 1020.3 hPa 7.5 m/s 39.1 mm 13.6° 1021.2 hPa 7.0 m/s 13.6° 1010.5 hPa 12.5 m/s 39.1 mm
13:00 14.6° 1021.2 hPa 8.6 m/s 39.4 mm 14.6° 1022.1 hPa 8.2 m/s 14.3° 1010.8 hPa 13.2 m/s 39.4 mm
16:00 14.2° 1021.3 hPa 8.3 m/s 39.6 mm 14.1° 1022.2 hPa 7.9 m/s 14.5° 1010.8 hPa 12.6 m/s 39.6 mm
19:00 13.7° 1021.4 hPa 7.9 m/s 39.6 mm 13.7° 1022.4 hPa 7.6 m/s 14.3° 1010.7 hPa 11.7 m/s 39.6 mm
22:00 13.9° 1021.8 hPa 7.6 m/s 39.6 mm 13.8° 1022.8 hPa 7.2 m/s 14.5° 1011.4 hPa 12.5 m/s 39.6 mm
 09:03     19:00    Daglengte: 9:57 Vrijdag 30 Okt
01:00 14.0° 1022.0 hPa 7.2 m/s 39.7 mm 14.0° 1023.1 hPa 6.7 m/s 14.5° 1010.4 hPa 13.0 m/s 39.7 mm
04:00 14.2° 1021.7 hPa 7.5 m/s 39.8 mm 14.2° 1022.8 hPa 7.0 m/s 14.6° 1009.8 hPa 14.0 m/s 39.8 mm
07:00 14.4° 1021.4 hPa 7.7 m/s 40.0 mm 14.4° 1022.5 hPa 7.2 m/s 14.5° 1009.4 hPa 13.1 m/s 40.0 mm
10:00 14.9° 1022.2 hPa 7.0 m/s 40.2 mm 14.9° 1023.4 hPa 6.5 m/s 14.9° 1009.5 hPa 12.8 m/s 40.2 mm
13:00 15.4° 1023.0 hPa 6.4 m/s 40.5 mm 15.4° 1024.3 hPa 5.8 m/s 14.9° 1008.7 hPa 12.7 m/s 40.5 mm
16:00 14.8° 1022.8 hPa 6.5 m/s 40.8 mm 14.8° 1024.2 hPa 5.8 m/s 14.6° 1006.8 hPa 14.4 m/s 40.8 mm
19:00 14.2° 1022.5 hPa 6.5 m/s 41.6 mm 14.2° 1024.2 hPa 5.7 m/s 14.0° 1004.1 hPa 15.7 m/s 41.6 mm
22:00 14.2° 1022.5 hPa 6.9 m/s 43.8 mm 14.2° 1024.2 hPa 6.0 m/s 13.8° 1003.5 hPa 16.5 m/s 43.8 mm
 09:05     18:59    Daglengte: 9:54 Zaterdag 31 Okt
01:00 14.1° 1022.6 hPa 6.4 m/s 47.1 mm 14.3° 1024.2 hPa 6.3 m/s 12.4° 1004.5 hPa 7.1 m/s 47.1 mm
04:00 13.6° 1022.2 hPa 6.8 m/s 48.4 mm 13.9° 1023.5 hPa 6.6 m/s 9.9° 1007.3 hPa 8.6 m/s 48.4 mm
07:00 13.3° 1021.9 hPa 6.7 m/s 48.7 mm 13.6° 1022.9 hPa 6.9 m/s 9.8° 1010.5 hPa 4.2 m/s 48.7 mm
10:00 13.9° 1021.8 hPa 6.8 m/s 49.2 mm 14.2° 1022.6 hPa 6.9 m/s 10.9° 1012.9 hPa 5.5 m/s 49.2 mm
13:00 14.6° 1021.7 hPa 6.8 m/s 50.1 mm 14.8° 1022.4 hPa 6.9 m/s 11.9° 1014.3 hPa 6.0 m/s 50.1 mm
19:00 13.9° 1020.9 hPa 5.9 m/s 50.1 mm 14.2° 1021.4 hPa 6.0 m/s 10.3° 1015.8 hPa 4.7 m/s 50.1 mm
 09:06     18:57    Daglengte: 9:51 Zondag 01 Nov
01:00 13.5° 1019.8 hPa 6.2 m/s 50.1 mm 13.7° 1020.3 hPa 6.1 m/s 10.9° 1014.2 hPa 7.7 m/s 50.1 mm
07:00 13.4° 1017.0 hPa 7.2 m/s 50.1 mm 13.5° 1018.0 hPa 6.5 m/s 12.3° 1005.9 hPa 14.3 m/s 50.1 mm
13:00 15.8° 1015.3 hPa 8.5 m/s 56.5 mm 15.9° 1016.6 hPa 7.9 m/s 14.8° 1000.6 hPa 14.7 m/s 56.5 mm
19:00 14.5° 1012.8 hPa 7.7 m/s 65.0 mm 14.5° 1014.2 hPa 7.4 m/s 14.9° 997.3 hPa 11.2 m/s 65.0 mm
 09:08     18:56    Daglengte: 9:48 Maandag 02 Nov
01:00 14.5° 1013.3 hPa 7.3 m/s 88.1 mm 14.6° 1014.6 hPa 6.9 m/s 13.5° 999.0 hPa 11.5 m/s 88.1 mm
07:00 13.2° 1014.5 hPa 3.2 m/s 88.7 mm 13.2° 1015.8 hPa 2.4 m/s 13.0° 1000.5 hPa 11.8 m/s 88.7 mm
13:00 13.2° 1016.4 hPa 1.9 m/s 89.4 mm 13.1° 1017.6 hPa 1.0 m/s 14.0° 1003.5 hPa 12.3 m/s 89.4 mm
19:00 14.0° 1016.0 hPa 5.4 m/s 90.3 mm 14.1° 1016.9 hPa 5.0 m/s 12.3° 1006.4 hPa 9.6 m/s 90.3 mm
 09:10     18:54    Daglengte: 9:44 Dinsdag 03 Nov
01:00 11.8° 1020.3 hPa 3.8 m/s 0.5 mm
07:00 11.1° 1021.5 hPa 3.2 m/s 0.4 mm
13:00 13.4° 1023.9 hPa 4.1 m/s 0.4 mm
19:00 10.9° 1025.2 hPa 2.8 m/s 0.3 mm
 09:11     18:53    Daglengte: 9:42 Woensdag 04 Nov
01:00 10.2° 1026.3 hPa 2.5 m/s 0.4 mm
07:00 9.8° 1026.2 hPa 2.3 m/s 0.6 mm
13:00 12.4° 1026.8 hPa 2.7 m/s 0.5 mm
19:00 10.0° 1026.7 hPa 2.3 m/s 0.5 mm
 09:13     18:51    Daglengte: 9:38 Donderdag 05 Nov
01:00 9.2° 1027.6 hPa 1.2 m/s 0.3 mm
07:00 8.8° 1026.9 hPa 0.8 m/s 0.3 mm
13:00 12.0° 1026.5 hPa 1.6 m/s 0.2 mm
19:00 10.3° 1024.7 hPa 1.6 m/s 0.4 mm
 09:14     18:50    Daglengte: 9:36 Vrijdag 06 Nov
01:00 9.5° 1023.9 hPa 1.7 m/s 0.5 mm
07:00 9.2° 1022.7 hPa 1.4 m/s 0.6 mm
13:00 12.0° 1022.9 hPa 2.0 m/s 0.3 mm
19:00 10.2° 1022.5 hPa 1.8 m/s 0.3 mm
 09:16     18:48    Daglengte: 9:32 Zaterdag 07 Nov
01:00 10.0° 1022.7 hPa 2.2 m/s 0.2 mm
07:00 9.8° 1022.1 hPa 2.0 m/s 0.5 mm
13:00 12.7° 1022.5 hPa 2.9 m/s 0.2 mm
19:00 10.9° 1022.5 hPa 2.3 m/s 0.2 mm
 09:17     18:47    Daglengte: 9:30 Zondag 08 Nov
01:00 10.4° 1022.8 hPa 2.2 m/s 0.9 mm
07:00 10.2° 1022.2 hPa 1.6 m/s 0.9 mm
13:00 12.2° 1022.8 hPa 1.4 m/s 0.7 mm
FMI Hirlam - 7.5 km EWN WRFDA - 12 km DWD ICON - 7 km GFS - 25 km Basiskaart






























































Updatetijd (Europe/Amsterdam) Resolutie Lengte Stap
FMI Hirlam 13:45, 19:45, 01:45, 06:45 7.5 km 49h 1h
EWN WRFDA 15:30, 21:30, 02:30, 08:30 12 km 73h 1h
DWD ICON 11:45, 17:45, 23:45, 04:45 7 km 75h 1h
GFS 14:00, 20:00, 02:00, 07:00 25 km 237h 3h
30+ mm
25-30 mm
20-25 mm
15-20 mm
10-15 mm
6-10 mm
4-6 mm
2-4 mm
1-2 mm
0.5-1 mm
0.2-0.5 mm
0.1-0.2 mm
30+ mm
25-30 mm
20-25 mm
15-20 mm
10-15 mm
6-10 mm
4-6 mm
2-4 mm
1-2 mm
0.5-1 mm
0.2-0.5 mm
0.1-0.2 mm
Sneeuwval
Natte sneeuw
Hagel
Vorst
30+ mm
25-30 mm
20-25 mm
15-20 mm
10-15 mm
6-10 mm
4-6 mm
2-4 mm
1-2 mm
0.5-1 mm
0.2-0.5 mm
0.1-0.2 mm
Sneeuwval
Natte sneeuw
Hagel
Vorst
Onweer
50 mm
40 mm
30 mm
26 mm
22 mm
18 mm
14 mm
10 mm
9 mm
8 mm
7 mm
6 mm
5 mm
4.5 mm
4 mm
3.5 mm
3 mm
2.5 mm
2 mm
1.5 mm
1 mm
0.8 mm
0.6 mm
0.4 mm
0.2 mm
0.05 mm
35°
30°
25°
20°
15°
10°
-5°
-10°
-15°
-20°
-25°
-30°
-35°
33> m/s
29 m/s
25 m/s
21 m/s
17 m/s
14 m/s
11 m/s
8 m/s
5 m/s
3 m/s
0 m/s
2600 J/kg
2400 J/kg
2200 J/kg
2000 J/kg
1800 J/kg
1600 J/kg
1400 J/kg
1200 J/kg
1000 J/kg
800 J/kg
600 J/kg
400 J/kg
200 J/kg
70 dBZ
65 dBZ
60 dBZ
55 dBZ
50 dBZ
45 dBZ
40 dBZ
35 dBZ
30 dBZ
25 dBZ
20 dBZ
15 dBZ
10 dBZ
5 dBZ
-1 K
-2 K
-3 K
-4 K
-5 K
-6 K
-7 K
-8 K
-9 K
950 m²/s²
900 m²/s²
850 m²/s²
800 m²/s²
750 m²/s²
700 m²/s²
650 m²/s²
600 m²/s²
550 m²/s²
500 m²/s²
450 m²/s²
400 m²/s²
350 m²/s²
300 m²/s²
250 m²/s²
200 m²/s²
150 m²/s²
100 m²/s²
46 m/s
44 m/s
42 m/s
40 m/s
38 m/s
36 m/s
34 m/s
32 m/s
30 m/s
28 m/s
26 m/s
24 m/s
22 m/s
20 m/s
16 m/s
12 m/s
8 m/s
4 m/s
30 m/s
28 m/s
26 m/s
24 m/s
22 m/s
20 m/s
18 m/s
16 m/s
14 m/s
12 m/s
10 m/s
8 m/s
6 m/s
4 m/s
2 m/s
3.0
2.8
2.6
2.4
2.2
2.0
1.8
1.6
1.4
1.2
1.0
0.8
0.6
0.4
0.2
15
14
13
12
11
10
9
8
7
6
5
4
3
2
1
90%
80%
70%
60%
50%
40%
30%
20%
10%
42
40
38
36
34
32
30
28
26
24
22
20
18
16
14
12
90+ cm
80-90 cm
70-80 cm
60-70 cm
50-60 cm
40-50 cm
30-40 cm
20-30 cm
10-20 cm
1-10 cm
Sneeuwval
Natte sneeuw
Regen
>120 mm
115 mm
110 mm
105 mm
100 mm
95 mm
90 mm
85 mm
80 mm
75 mm
70 mm
65 mm
60 mm
55 mm
50 mm
45 mm
45 mm
40 mm
35 mm
30 mm
25 mm
20 mm
15 mm
10 mm
5 mm
0.1 mm
960 hPa
880 hPa
800 hPa
720 hPa
640 hPa
560 hPa
584 gpdm
568 gpdm
552 gpdm
536 gpdm
520 gpdm
504 gpdm
488 gpdm
Extreem zwaar Noodweer Kans op onweer
15% 15% 5% 50% 15%

Dag




Kaart






35°